Location: Le Rouget
(44.8538°N, 2.2328°E)
Time: 10:36:19
(UTC+00:00)

CZ-4B R/B - Pass Details

Date: 15 May 2026
Orbit: 807 x 881 km, 98.9° (Epoch: 6 June)

Event Time Altitude Azimuth Distance (km) Brightness Sun altitude
Exits shadow 20:05:20 - 161° (SSE) 2,982 5.5 -8.6°
Reaches altitude 10° 20:06:29 10° 161° (SSE) 2,529 5.2 -8.8°
Maximum altitude 20:12:08 83° 74° (ENE) 886 3.3 -9.5°
Drops below altitude 10° 20:17:45 10° 347° (NNW) 2,518 6.5 -10.3°
Sets 20:20:08 0° 347° (NNW) 3,450 7.3 -10.6°
